[[{"header":{"parameterUnit":"m.s-1","parameterCategory":1,"la1":30.2991,"la2":30.254,"lo1":-89.0895,"lo2":-89.0444,"dy":0.0017,"dx":0.0017,"nx":28,"ny":28,"refTime":"2025-04-05T09:00:00:Z","depth":0,"parameterNumber":2,"parameterNumberName":"U-component_of_WINDS"},"data":[0,0,0,0,0,0,0,0,0,0,0,0,0,0,0,0,0,0,0,0,0,0,0,0,0,0,0,0,0,0,0,0,0,0,0,0,0,0,0,0,0,0,0,0,0,0,0,0,0,0,0,0,0,0,0,0,0,0,3.9206,3.9208,0,3.944,3.9443,3.9445,3.9487,3.9485,3.9483,3.9482,3.9723,3.9731,3.9739,0,0,0,0,0,0,0,0,0,0,0,0,0,3.8796,3.8804,3.9206,3.9209,3.9212,3.944,3.9443,3.9446,3.9488,3.9485,3.9483,3.9481,3.9721,3.973,3.974,0,0,0,0,0,0,0,0,0,0,0,0,0,3.8997,3.8806,3.9205,3.926,3.9267,3.9439,3.9443,3.9447,3.9488,3.9485,3.9482,3.948,3.9717,3.9729,3.9742,3.9876,0,0,3.9779,3.9785,0,0,0,0,0,0,0,0,3.8985,3.9012,3.9249,3.9256,3.9265,3.9431,3.9387,3.9591,3.9489,3.9404,3.9482,3.9478,3.9629,3.9648,3.9699,3.9888,3.9898,3.978,3.9788,3.9793,3.9797,0,0,0,0,0,0,0,3.8971,3.9002,3.9299,3.9252,3.9262,3.9273,3.9298,3.9426,3.953,3.9411,3.9415,3.9442,3.9632,3.9687,3.9705,3.9902,3.978,3.9791,3.9799,3.9804,4.0213,4.0217,0,0,0,0,0,0,3.8948,3.899,3.9291,3.9306,3.9115,3.9283,3.9311,3.9381,3.9529,3.9548,3.9444,3.9443,3.9667,3.969,3.9713,3.9881,3.9793,3.9805,3.9812,4.021,4.0214,4.0218,0,0,0,0,0,0,3.8939,3.8974,3.9282,3.9149,3.9189,3.9293,3.9371,3.9387,3.9441,3.9554,3.9572,3.948,3.9665,3.9696,3.9835,3.989,3.981,3.9822,4.0206,4.0211,4.0216,4.0217,0,0,0,0,0,0,3.8927,3.897,3.9022,3.915,3.9196,3.9399,3.9374,3.9394,3.9462,3.9463,3.9592,3.9611,3.9666,3.9817,3.9848,3.9906,3.9831,4.0201,4.0208,4.0214,4.0213,4.0222,4.0229,0,0,0,0,0,3.8912,3.9014,3.9025,3.9061,3.9263,3.9402,3.9429,3.9489,3.9466,3.952,3.9592,3.9607,3.9879,3.9831,3.9866,3.9928,4.0198,4.0206,4.0214,4.0209,4.022,4.0229,0,0,0,0,0,0,3.8891,3.9031,3.9045,3.9191,3.9284,3.9409,3.9478,3.9499,3.9601,3.9597,3.9668,3.9697,3.9833,3.9895,3.9838,4.0067,4.0037,4.0052,4.0021,4.0033,4.0041,4.0023,3.9842,0,0,0,0,0,3.8903,3.9004,3.9122,3.9239,3.9285,3.9373,3.9437,3.9475,3.9575,3.9614,3.9697,3.9794,3.9901,3.997,4.0075,4.0222,4.0251,4.0282,4.029,4.0296,4.0309,4.0391,4.0407,4.0243,4.0243,4.0243,0,0,3.8929,3.9019,3.9078,3.9237,3.9314,3.9418,3.9407,3.9517,3.9595,3.9631,3.9768,3.9832,3.9945,4.0088,4.0156,4.0144,4.036,4.0306,4.0311,4.032,4.0401,4.0416,4.043,4.0249,4.0248,4.0247,0,0,3.9031,3.9108,3.9215,3.9292,3.9408,3.9466,3.9491,3.9613,3.9657,3.9795,3.9825,3.9919,4.0102,4.0181,4.0245,4.0376,4.0394,4.0408,4.0452,4.0532,4.0544,4.0556,4.0603,4.0619,4.042,4.042,4.042,0,3.9049,3.9206,3.9267,3.9376,3.9445,3.9482,3.9591,3.9663,3.9808,3.9855,3.9839,4.007,4.0149,4.0311,4.0343,4.0394,4.0426,4.0394,4.0537,4.055,4.0562,4.0607,4.0625,4.0421,4.0421,4.0421,4.0421,0,3.9223,3.9331,3.9403,3.9541,3.9619,3.9727,3.9805,3.9876,3.9907,3.9967,4.0107,4.0203,4.0328,4.0369,4.0401,4.0537,4.0526,4.0523,4.0495,4.0577,4.0621,4.0639,4.0423,4.0422,4.0422,4.0422,0,0,3.9318,3.9488,3.9513,3.9576,3.9707,3.9792,3.9902,4.0024,4.0084,4.0182,4.0276,4.043,4.0429,4.0502,4.0543,4.0612,4.071,4.0602,4.0605,4.0619,4.0866,4.0867,4.0886,4.0723,4.0726,4.0729,4.0857,0,3.9435,3.9632,3.969,3.9856,3.9957,3.9993,4.0089,4.018,4.0239,4.0334,4.0399,4.0507,4.0496,4.0541,4.0611,4.0683,4.0761,4.0675,4.0812,4.0816,4.0782,4.0909,4.0912,4.1027,4.0874,4.0877,4.0879,0,3.9598,3.9699,3.9874,3.9992,4.0036,4.0121,4.0237,4.0327,4.0431,4.0469,4.055,4.0585,4.0702,4.0667,4.0829,4.0769,4.0829,4.0873,4.0879,4.0894,4.0853,4.0929,4.1066,4.1083,4.0907,4.0905,4.0903,0,3.965,3.9829,3.9958,4.001,4.0151,4.021,4.0271,4.0372,4.0441,4.0543,4.0589,4.0703,4.0765,4.0853,4.0918,4.0887,4.1075,4.1045,4.111,4.1109,4.1149,4.1145,4.1297,4.1186,4.1186,4.1185,4.1185,0,3.9775,3.9881,3.9983,4.0062,4.0182,4.0247,4.0365,4.0428,4.0517,4.0609,4.0648,4.0734,4.0815,4.0912,4.0964,4.109,4.1118,4.1152,4.1165,4.1149,4.1145,4.119,4.1183,4.119,4.1189,4.1188,4.1187,0,3.9853,3.9926,4.0068,4.0189,4.0222,4.0305,4.0409,4.0487,4.0547,4.0663,4.0694,4.0789,4.0905,4.0978,4.1126,4.1161,4.13,4.131,4.1264,4.127,4.1331,4.1325,4.1518,4.1546,4.1415,4.1416,4.1417,0,3.9929,4.0011,4.014,4.0204,4.0266,4.0369,4.044,4.0508,4.058,4.0704,4.0768,4.0886,4.0984,4.1168,4.125,4.1363,4.1376,4.1436,4.1394,4.1375,4.1378,4.1372,4.1381,4.1443,4.1444,4.1445,4.1446,0,4.0054,4.0086,4.0186,4.0298,4.0381,4.0474,4.0566,4.0616,4.07,4.078,4.0898,4.0974,4.1125,4.1242,4.1362,4.1426,4.1451,4.1458,4.148,4.1465,4.1435,4.1452,4.1284,4.1454,4.1453,4.1452,4.1452,4.1452,4.0134,4.0209,4.0311,4.0421,4.0498,4.0583,4.0662,4.0732,4.0832,4.0959,4.0993,4.1117,4.1219,4.1383,4.145,4.1548,4.154,4.1571,4.1579,4.1585,4.1586,4.1419,4.157,4.157,4.157,4.157,4.157,0,4.0262,4.033,4.043,4.0557,4.0644,4.0658,4.0761,4.0833,4.0941,4.1034,4.1129,4.1266,4.138,4.147,4.1588,4.1649,4.1663,4.1678,4.1674,4.1688,4.1586,4.1557,4.1664,4.1664,4.1664,4.1664,4.1664,4.1664,4.0339,4.0466,4.051,4.0675,4.0743,4.0864,4.0921,4.1,4.1075,4.1225,4.1319,4.1377,4.147,4.1594,4.1699,4.1723,4.1764,4.1777,4.1803,4.1706,4.1696,4.1686,4.1658,4.1785,4.1785,4.1897,4.1898,4.1898]},{"header":{"parameterUnit":"m.s-1","parameterCategory":1,"la1":30.2991,"la2":30.254,"lo1":-89.0895,"lo2":-89.0444,"dy":0.0017,"dx":0.0017,"nx":28,"ny":28,"refTime":"2025-04-05T09:00:00:Z","depth":0,"parameterNumber":3,"parameterNumberName":"V-component_of_WINDS"},"data":[0,0,0,0,0,0,0,0,0,0,0,0,0,0,0,0,0,0,0,0,0,0,0,0,0,0,0,0,0,0,0,0,0,0,0,0,0,0,0,0,0,0,0,0,0,0,0,0,0,0,0,0,0,0,0,0,0,0,-6.0738,-6.074,0,-6.0933,-6.0935,-6.0938,-6.0885,-6.0881,-6.0877,-6.0874,-6.1071,-6.108,-6.1088,0,0,0,0,0,0,0,0,0,0,0,0,0,-6.0315,-6.0323,-6.0737,-6.074,-6.0742,-6.0933,-6.0936,-6.0938,-6.0886,-6.0881,-6.0876,-6.0872,-6.1068,-6.1079,-6.1089,0,0,0,0,0,0,0,0,0,0,0,0,0,-6.0503,-6.0326,-6.0737,-6.0739,-6.0741,-6.0932,-6.0936,-6.0939,-6.0887,-6.0881,-6.0875,-6.087,-6.1065,-6.1077,-6.1091,-6.129,0,0,-6.1131,-6.1137,0,0,0,0,0,0,0,0,-6.0493,-6.0519,-6.0736,-6.0739,-6.0742,-6.0879,-6.0859,-6.1057,-6.0888,-6.0832,-6.0874,-6.0867,-6.1012,-6.1029,-6.1078,-6.1299,-6.1308,-6.1133,-6.1141,-6.1146,-6.115,0,0,0,0,0,0,0,-6.048,-6.051,-6.0815,-6.074,-6.0743,-6.0729,-6.075,-6.0896,-6.0952,-6.0836,-6.0833,-6.0857,-6.1012,-6.1066,-6.1083,-6.1311,-6.1132,-6.1144,-6.1152,-6.1158,-6.1704,-6.1711,0,0,0,0,0,0,-6.0465,-6.05,-6.0808,-6.0821,-6.0601,-6.0742,-6.0764,-6.0841,-6.095,-6.0961,-6.0862,-6.0854,-6.1046,-6.1067,-6.1089,-6.133,-6.1146,-6.1159,-6.1166,-6.1698,-6.1706,-6.1713,0,0,0,0,0,0,-6.0456,-6.0493,-6.0801,-6.0659,-6.0698,-6.0755,-6.0842,-6.0848,-6.0901,-6.097,-6.0979,-6.0907,-6.1042,-6.1071,-6.1241,-6.1336,-6.1165,-6.1177,-6.169,-6.17,-6.1709,-6.1812,0,0,0,0,0,0,-6.0444,-6.049,-6.0567,-6.0662,-6.0705,-6.095,-6.0847,-6.0856,-6.0925,-6.0916,-6.1014,-6.1025,-6.104,-6.1221,-6.1254,-6.1351,-6.1187,-6.1682,-6.1695,-6.1706,-6.1801,-6.1824,-6.1845,0,0,0,0,0,-6.0429,-6.0588,-6.0572,-6.0609,-6.0803,-6.0956,-6.0981,-6.0996,-6.0933,-6.101,-6.1054,-6.1022,-6.132,-6.1239,-6.1276,-6.1378,-6.1676,-6.1691,-6.1705,-6.1791,-6.182,-6.1844,0,0,0,0,0,0,-6.0503,-6.06,-6.0583,-6.0778,-6.0859,-6.0947,-6.1045,-6.1026,-6.1126,-6.1113,-6.1127,-6.1149,-6.1323,-6.1367,-6.1275,-6.1576,-6.1489,-6.1511,-6.1541,-6.1569,-6.1591,-6.1576,-6.1198,0,0,0,0,0,-6.0542,-6.0659,-6.0737,-6.0901,-6.0943,-6.0987,-6.1054,-6.1059,-6.1143,-6.1177,-6.1233,-6.1315,-6.1427,-6.15,-6.1607,-6.1807,-6.1827,-6.1895,-6.1917,-6.1935,-6.1954,-6.2062,-6.2093,-6.1761,-6.1761,-6.1761,0,0,-6.0623,-6.0691,-6.0764,-6.0917,-6.0981,-6.11,-6.1016,-6.1146,-6.1235,-6.1196,-6.136,-6.1404,-6.1497,-6.1682,-6.1766,-6.1724,-6.205,-6.1954,-6.1967,-6.1977,-6.208,-6.2112,-6.2139,-6.1771,-6.1769,-6.1768,0,0,-6.0832,-6.0896,-6.1039,-6.1105,-6.1202,-6.1231,-6.1265,-6.1356,-6.1384,-6.155,-6.1523,-6.1627,-6.1821,-6.1887,-6.1947,-6.2181,-6.2154,-6.2215,-6.233,-6.2435,-6.2461,-6.2484,-6.2567,-6.2597,-6.2234,-6.2235,-6.2235,0,-6.0921,-6.1101,-6.1115,-6.1248,-6.1315,-6.1287,-6.1431,-6.1494,-6.1621,-6.1668,-6.1619,-6.1861,-6.1921,-6.2121,-6.2179,-6.2228,-6.2266,-6.2204,-6.2457,-6.248,-6.2502,-6.2581,-6.2612,-6.2241,-6.2241,-6.224,-6.2239,0,-6.1204,-6.133,-6.1433,-6.1558,-6.1638,-6.1776,-6.1809,-6.1888,-6.1885,-6.1918,-6.2086,-6.2158,-6.2278,-6.2326,-6.2325,-6.2527,-6.2497,-6.2453,-6.2365,-6.254,-6.2614,-6.2645,-6.2251,-6.2249,-6.2247,-6.2245,0,0,-6.1465,-6.1596,-6.1634,-6.169,-6.1795,-6.1892,-6.2028,-6.2147,-6.2214,-6.2302,-6.2416,-6.258,-6.2539,-6.2607,-6.2612,-6.2705,-6.2885,-6.2648,-6.2651,-6.2689,-6.311,-6.3143,-6.3178,-6.2868,-6.2874,-6.2878,-6.3102,0,-6.1683,-6.1924,-6.194,-6.2158,-6.2273,-6.2247,-6.2365,-6.2442,-6.2477,-6.2579,-6.2616,-6.2732,-6.267,-6.2711,-6.2801,-6.2844,-6.2969,-6.2828,-6.2972,-6.2977,-6.295,-6.3217,-6.3252,-6.346,-6.3131,-6.3136,-6.314,0,-6.197,-6.2068,-6.2297,-6.2386,-6.2435,-6.2541,-6.2651,-6.275,-6.2836,-6.2854,-6.293,-6.2922,-6.306,-6.2968,-6.3158,-6.3061,-6.3121,-6.3151,-6.316,-6.3173,-6.3069,-6.3237,-6.3527,-6.3558,-6.3186,-6.3183,-6.3179,0,-6.2136,-6.2326,-6.2487,-6.2536,-6.2644,-6.2719,-6.2767,-6.2848,-6.2918,-6.3014,-6.306,-6.317,-6.323,-6.3315,-6.3337,-6.3268,-6.3527,-6.3436,-6.3545,-6.3545,-6.36,-6.3596,-6.3903,-6.364,-6.3639,-6.3639,-6.3638,0,-6.2378,-6.2519,-6.2564,-6.2663,-6.282,-6.2836,-6.2991,-6.3034,-6.3106,-6.3212,-6.3196,-6.3296,-6.3319,-6.3423,-6.3441,-6.3595,-6.3623,-6.3641,-6.3644,-6.3642,-6.364,-6.3681,-6.3667,-6.3647,-6.3645,-6.3644,-6.3642,0,-6.259,-6.2626,-6.28,-6.2888,-6.2914,-6.3025,-6.31,-6.3195,-6.3227,-6.3362,-6.3394,-6.3445,-6.3567,-6.3597,-6.3742,-6.3754,-6.3936,-6.3925,-6.3907,-6.3907,-6.4013,-6.4003,-6.4357,-6.4404,-6.4111,-6.4113,-6.4116,0,-6.2742,-6.285,-6.295,-6.302,-6.3072,-6.3186,-6.3258,-6.3278,-6.3354,-6.346,-6.3542,-6.3661,-6.3758,-6.3954,-6.4002,-6.4113,-6.4104,-6.4221,-6.4121,-6.4116,-6.4105,-6.4099,-6.4109,-6.424,-6.4243,-6.4245,-6.4248,0,-6.3007,-6.3019,-6.3124,-6.3236,-6.3322,-6.3411,-6.3495,-6.3554,-6.3586,-6.3671,-6.3796,-6.3871,-6.4019,-6.4138,-6.4249,-6.4297,-6.4278,-6.4279,-6.431,-6.4309,-6.4294,-6.4303,-6.3959,-6.427,-6.4268,-6.4266,-6.4265,-6.4264,-6.3193,-6.3288,-6.3373,-6.349,-6.3556,-6.3635,-6.3729,-6.3773,-6.3878,-6.4001,-6.4006,-6.4142,-6.4224,-6.4372,-6.4426,-6.4531,-6.4496,-6.4541,-6.4552,-6.4563,-6.4572,-6.4278,-6.4552,-6.4551,-6.4551,-6.455,-6.455,0,-6.3457,-6.351,-6.3618,-6.3737,-6.3829,-6.3804,-6.3896,-6.3975,-6.4095,-6.4174,-6.427,-6.4413,-6.4528,-6.4586,-6.47,-6.4773,-6.4767,-6.4802,-6.4796,-6.4808,-6.4598,-6.4559,-6.4805,-6.4805,-6.4805,-6.4805,-6.4805,-6.4805,-6.3605,-6.3763,-6.3786,-6.3976,-6.4028,-6.4162,-6.4217,-6.429,-6.4353,-6.4514,-6.461,-6.4647,-6.4718,-6.4837,-6.4941,-6.4954,-6.4997,-6.5037,-6.5046,-6.4849,-6.4823,-6.4798,-6.4762,-6.5046,-6.5046,-6.5247,-6.5249,-6.5251]}]]